This is the latest recevied weather packets stored in our database for station/object N4MGC. If no packets are shown the sender has not sent any weather packets the latest 10 day(s).
| Time | Temp. | Humidity | Pressure | Rain* | Wind** | Luminosity | Snow |
|---|---|---|---|---|---|---|---|
| 1777505998 | 24.44° C | 93% | 1010.2 hPa | 0 mm | - | 15 W/m² | - |
| 1777505694 | 24.44° C | 92% | 1010.1 hPa | 0 mm | - | 10 W/m² | - |
| 1777505391 | 24.44° C | 90% | 1009.9 hPa | 0 mm | - | 11 W/m² | - |
| 1777505088 | 25° C | 89% | 1009.7 hPa | 0 mm | - | 26 W/m² | - |
| 1777504785 | 25° C | 88% | 1009.7 hPa | 0 mm | - | 23 W/m² | - |
| 1777504482 | 25° C | 89% | 1009.6 hPa | 0 mm | - | 30 W/m² | - |
| 1777504178 | 25° C | 88% | 1009.7 hPa | 0 mm | - | 32 W/m² | - |
| 1777503873 | 25° C | 88% | 1009.7 hPa | 0 mm | - | 36 W/m² | - |
| 1777503570 | 25° C | 88% | 1009.7 hPa | 0 mm | - | 25 W/m² | - |
| 1777503267 | 25.56° C | 84% | 1009.8 hPa | 0 mm | - | 23 W/m² | - |
| 1777502963 | 25.56° C | 85% | 1009.9 hPa | 0 mm | - | 54 W/m² | - |
| 1777502661 | 25.56° C | 83% | 1010.2 hPa | 0 mm | - | 69 W/m² | - |
| 1777502357 | 25.56° C | 85% | 1010.5 hPa | 0 mm | - | 32 W/m² | - |
| 1777502054 | 25.56° C | 86% | 1010.4 hPa | 0 mm | - | 42 W/m² | - |
| 1777501751 | 25.56° C | 86% | 1010.2 hPa | 0 mm | - | 31 W/m² | - |
| 1777501449 | 25.56° C | 85% | 1010 hPa | 0 mm | - | 38 W/m² | - |
| 1777501145 | 26.11° C | 84% | 1010.2 hPa | 0 mm | - | 71 W/m² | - |
| 1777500844 | 26.11° C | 83% | 1010 hPa | 0 mm | - | 96 W/m² | - |
| 1777500541 | 26.11° C | 85% | 1010 hPa | 0 mm | - | 108 W/m² | - |
| 1777500237 | 26.11° C | 82% | 1010 hPa | 0 mm | - | 119 W/m² | - |
| 1777499934 | 26.11° C | 80% | 1010 hPa | 0 mm | - | 106 W/m² | - |
| 1777499630 | 26.67° C | 80% | 1009.9 hPa | 0 mm | - | 128 W/m² | - |
| 1777499327 | 27.22° C | 80% | 1009.8 hPa | 0 mm | - | 170 W/m² | - |
| 1777499025 | 27.22° C | 75% | 1010.1 hPa | 0 mm | - | 167 W/m² | - |
| 1777498721 | 27.22° C | 77% | 1010.6 hPa | 0 mm | - | 171 W/m² | - |
* Rain latest hour (hover to see other rain measurements)
** Current wind speed in m/s (hover to see current wind gust speed)